{"data":{"norad_id":67311,"intl_designator":"2026-002G","name":"STARLINK-36495","alt_names":[],"object_type":"PAYLOAD","status":"ACTIVE","operator":null,"country":"US","launch_date":"2026-01-04","launch_site_code":"AFETR","launch_vehicle":null,"mission":null,"orbit_class":"UNKNOWN","rcs_meters":null,"size_class":null,"mass_kg":null,"dimensions":null,"purposes":["comms"],"wikipedia_slug":null,"has_3d_model":false,"image_url":null,"decayed_at":null,"tle_current":{"epoch":"2026-05-25T00:17:32.338176Z","epoch_age_seconds":67371,"freshness":"FRESH","line1":"1 67311U 26002G   26145.01217984  .00014432  00000+0  53296-3 0  9999","line2":"2 67311  43.0017 254.0504 0001025 276.9869  83.0866 15.27578952 22916","mean_motion":15.27578952,"eccentricity":0.0001025,"inclination_deg":43.0017,"raan_deg":254.0504,"arg_perigee_deg":276.9869,"mean_anomaly_deg":83.0866,"bstar":0.00053296,"rev_number":2291,"period_min":94.26681338563,"perigee_km":482.34896223396,"apogee_km":483.75550602696,"semimajor_km":6861.1892341305,"source":"CELESTRAK","updated_at":"2026-05-25T13:38:21.515786Z"}}}